Kodiak, AK

7:46 PM AKDT en Julio 22, 2018 (GMT -0800)
Kodiak

Tiempo Historia de PADQ - Julio, 2018

Change the Weather History Date:

Jueves, Julio 12, 2018

  Actual Average Record
Temperature  
Temperatura media 55 ° F 54 ° F  
Temperatura máxima 61 ° F 59 ° F 76 ° F (2004)
Temperatura mínima 49 ° F 49 ° F 38 ° F (1927)
Degree Days  
Grados día de calefacción 10 11  
Month to date heating degree days 83 140  
Since 1 June heating degree days 491 601  
Since 1 July heating degree days 83 140  
Cooling Degree Days 0 0  
Month to date cooling degree days 2 0  
Year to date cooling degree days 2 0  
Since 1 June cooling degree days 2 0  
Growing Degree Days 4 (Base 50)    
Moisture  
Punto de rocío 45 ° F    
Average Humidity 74    
Maximum Humidity 86    
Minimum Humidity 62    
Precipitación  
Precipitación 0.00 pul 0.17 pul 1.58 pul (1973)
Month to date precipitation 0.13 1.99  
Year to date precipitation 32.30 39.29  
Nieve  
Nieve 0.00 pul 0.00 pul - ()
Month to date snowfall 0.0 0.0  
Since 1 July snowfall 0.0 0.0  
Grosos de nieve 0.00 pul    
Presión al nivel del mar  
Presión al nivel del mar 30.26 pul    
Viento  
Velocidad del viento 5 mph (SE)    
Velocidad máxima del viento 10 mph    
Max Gust Speed 12 mph    
Visibilidad 10 Millas    
Eventos      
T = Trace of Precipitation, MM = Missing Value Source: NWS Daily Summary

Daily Weather History Graph

Daily Weather History Graph

Search for Another Location

Airport or City:

Astronomía

Jul. 12, 2018 Salida Puesta
Hora real 5:28 AM AKDT 11:02 PM AKDT
Crepúsculo civil 4:23 AM AKDT 12:06 AM AKDT
Crepúsculo náutico 2:48 AM AKDT 1:43 AM AKDT
Crepúsculo astronómico Sun does not set Sun does not set
Luna 5:14 AM AKDT (7/12) 10:46 PM AKDT (7/12)
Horas de luz 19h 43m
Horas de luz
17h 33m
Creciente menguante, 0% of the Moon is Illuminated
Jul 12
Creciente menguante
Jul 12
Nueva
Jul 19
Cuarto creciente
Jul 27
Luna llena
Ago 4
Cuarto menguante

Hourly Weather History & Observations

Hora (AKDT) Temp. Punto de rocío Humedad Presión Visibilidad Wind Dir Velocidad del viento Velocidad de ráfagas Precip Eventos Condiciones
12:53 AM 50.0 ° F 45.0 ° F 83% 30.21 pul 10.0 mi Oeste 5.8 mph - N/A   Despejado
1:53 AM 50.0 ° F 44.1 ° F 80% 30.22 pul 10.0 mi Oeste 5.8 mph - N/A   Despejado
2:53 AM 48.9 ° F 44.1 ° F 83% 30.23 pul 10.0 mi Oeste 6.9 mph - N/A   Despejado
3:53 AM 50.0 ° F 45.0 ° F 83% 30.24 pul 10.0 mi Sin viento Sin viento - N/A   Nubes dispersas
4:53 AM 48.9 ° F 45.0 ° F 86% 30.25 pul 10.0 mi OSO 3.5 mph - N/A   Muy nublado
5:53 AM 50.0 ° F 45.0 ° F 83% 30.25 pul 10.0 mi Sin viento Sin viento - N/A   Nubes dispersas
6:53 AM 50.0 ° F 46.0 ° F 86% 30.26 pul 10.0 mi Sin viento Sin viento - N/A   Muy nublado
7:53 AM 51.1 ° F 45.0 ° F 80% 30.27 pul 10.0 mi Sin viento Sin viento - N/A   Nubes dispersas
8:53 AM 52.0 ° F 46.0 ° F 80% 30.28 pul 10.0 mi NE 3.5 mph - N/A   Muy nublado
9:53 AM 53.1 ° F 46.9 ° F 80% 30.28 pul 10.0 mi Sin viento Sin viento - N/A   Despejado
10:53 AM 54.0 ° F 46.9 ° F 77% 30.29 pul 10.0 mi Este 5.8 mph - N/A   Despejado
11:53 AM 54.0 ° F 46.9 ° F 77% 30.29 pul 10.0 mi Este 6.9 mph - N/A   Despejado
12:53 PM 54.0 ° F 48.0 ° F 80% 30.30 pul 10.0 mi Este 8.1 mph - N/A   Despejado
1:53 PM 55.0 ° F 48.9 ° F 80% 30.30 pul 10.0 mi Este 9.2 mph - N/A   Despejado
2:53 PM 57.0 ° F 46.9 ° F 69% 30.29 pul 10.0 mi Este 6.9 mph - N/A   Despejado
3:53 PM 59.0 ° F 46.0 ° F 62% 30.29 pul 10.0 mi NNE 9.2 mph - N/A   Despejado
4:53 PM 61.0 ° F 44.1 ° F 54% 30.27 pul 10.0 mi SE 10.4 mph - N/A   Despejado
5:53 PM 59.0 ° F 45.0 ° F 60% 30.27 pul 10.0 mi SE 10.4 mph - N/A   Despejado
6:53 PM 57.9 ° F 45.0 ° F 62% 30.26 pul 10.0 mi SE 15.0 mph - N/A   Parcialmente nublado
7:53 PM 57.9 ° F 45.0 ° F 62% 30.25 pul 10.0 mi SE 11.5 mph - N/A   Parcialmente nublado
8:53 PM 57.0 ° F 44.1 ° F 62% 30.26 pul 10.0 mi Sur 10.4 mph - N/A   Muy nublado
9:53 PM 54.0 ° F 43.0 ° F 66% 30.27 pul 10.0 mi Sur 11.5 mph - N/A   Despejado
10:53 PM 52.0 ° F 43.0 ° F 71% 30.26 pul 10.0 mi Sur 10.4 mph - N/A   Nubes dispersas
11:00 PM 53.1 ° F 43.0 ° F 69% 30.26 pul 10.0 mi Sur 13.8 mph - N/A   Muy nublado
11:09 PM 53.1 ° F 43.0 ° F 69% 30.26 pul 10.0 mi Sur 12.7 mph - N/A   Nubes dispersas
11:53 PM 53.1 ° F 42.1 ° F 66% 30.26 pul 10.0 mi Sur 8.1 mph - N/A   Muy nublado